Location: Ellerstadt
(49.4644°N, 8.2615°E)
Time: 00:08:06
(UTC+00:00)

CZ-4 R/B - Pass Details

Date: 03 March 2021
Orbit: 532 x 597 km, 97.7° (Epoch: 12 April)

Event Time Altitude Azimuth Distance (km) Brightness Sun altitude
Rises 18:02:54 0° 169° (S) 2,669 4.7 -8.9°
Reaches altitude 10° 18:04:59 10° 172° (S) 1,787 3.8 -9.2°
Maximum altitude 18:08:50 74° 257° (WSW) 568 1.5 -9.8°
Drops below altitude 10° 18:12:46 10° 343° (NNW) 1,827 4.2 -10.5°
Sets 18:14:56 0° 345° (NNW) 2,735 5.1 -10.8°
